Location: Newark
(44.3248°N, 23.7839°E)
Time: 14:21:24
(UTC+00:00)

CAS-6 - Pass Details

Date: 28 April 2024
Orbit: 607 x 628 km, 97.8° (Epoch: 26 May)

Event Time Altitude Azimuth Distance (km) Brightness Sun altitude
Exits shadow 19:37:22 23° 71° (ENE) 1,319 ? -20.2°
Maximum altitude 19:37:36 23° 66° (ENE) 1,315 ? -20.3°
Drops below altitude 10° 19:41:00 10° 14° (NNE) 1,983 ? -20.7°
Sets 19:43:31 0° 0° (N) 2,889 ? -21.0°
